Home > Weather > Monterey > Past weeks

Flag for U.S.A. Weather for the Past 2 Weeks in Monterey, California, U.S.A.

Now
62 °F

Sunny.


Feels Like: 62 °F
Forecast: 52 / 72 °F
Wind: No wind

Location: Monterey Peninsula Airport

Current Time: Feb 8, 2016 at 10:11:32 AM

Latest Report: Feb 8, 2016 at 8:54 AM


Visibility: 10 mi

Pressure: 30.23 "Hg

Humidity: 39%

Dew point: 37 °F

Location of MontereyLocation

Historic Weather in Monterey — Graph

°F

Monterey Temperature Yesterday

Maximum temperature yesterday: 75 °F (at 3:54 PM)
Minimum temperature yesterday: 48 °F (at 6:54 AM)
Average temperature yesterday: 60 °F

High & Low Weather Summary for the Past Weeks

 TemperatureHumidityPressure
High75 °F (Feb 7, 3:54 PM)97% (Jan 30, 1:54 AM)30.47 "Hg (Jan 30, 1:54 AM)
Low40 °F (Feb 5, 5:54 AM)31% (Feb 1, 10:54 AM)29.84 "Hg (Jan 31, 1:54 PM)
Average53 °F72%30.26 "Hg
* Reported Jan 24 8:54 AM — Feb 8 8:54 AM, Monterey, Weather by CustomWeather, © 2016

Note: Actual official high and low records may vary slightly from our data, if they occured in-between our weather recording intervals... More about our weather records

Advertising

Monterey Weather History for the Previous 24 Hours

 ConditionsComfort  
Time TempWeatherWind HumidityBarometerVisibility
8:54 AM
Mon, Feb 8
62 °FSunny.No wind39%30.23 "Hg10 mi
7:54 AM56 °FSunny.No wind49%30.21 "Hg10 mi
6:54 AM53 °FClear.No wind52%30.20 "Hg10 mi
5:54 AM58 °FClear.7 mph41%30.19 "Hg10 mi
4:54 AM59 °FClear.No wind39%30.18 "Hg10 mi
3:54 AM58 °FClear.No wind44%30.18 "Hg10 mi
2:54 AM58 °FClear.No wind46%30.18 "Hg10 mi
1:54 AM59 °FClear.6 mph46%30.18 "Hg10 mi
12:54 AM57 °FClear.7 mph55%30.19 "Hg10 mi
11:54 PM
Sun, Feb 7
55 °FClear.5 mph62%30.20 "Hg10 mi
10:54 PM60 °FClear.8 mph49%30.21 "Hg10 mi
9:54 PM57 °FClear.7 mph60%30.21 "Hg10 mi
8:54 PM58 °FClear.6 mph62%30.21 "Hg10 mi
7:54 PM58 °FClear.5 mph65%30.21 "Hg10 mi
6:54 PM60 °FClear.5 mph60%30.21 "Hg10 mi
5:54 PM66 °FClear.3 mph50%30.19 "Hg10 mi
4:54 PM74 °FSunny.5 mph32%30.16 "Hg10 mi
3:54 PM75 °FSunny.8 mph31%30.16 "Hg10 mi
2:54 PM74 °FSunny.8 mph35%30.17 "Hg10 mi
1:54 PM73 °FSunny.9 mph36%30.18 "Hg10 mi
12:54 PM70 °FSunny.7 mph38%30.22 "Hg10 mi
11:54 AM68 °FSunny.9 mph40%30.25 "Hg10 mi
10:54 AM66 °FSunny.8 mph40%30.27 "Hg10 mi
Weather by CustomWeather, © 2016

See weather overviewHow to use our weather pages